Location: Le Domaine
(47.0333°N, 76.5361°W)
Time: 21:02:00
(UTC-05:00)

S-56A Canister/Altair - Pass Details

Date: 21 November 2019
Orbit: 633 x 2499 km, 38.9° (Epoch: 06 December)

Event Time Altitude Azimuth Distance (km) Brightness Sun altitude
Rises 15:06:45 0° 215° (SW) 5,805 14.0 10.0°
Reaches altitude 10° 15:11:35 10° 205° (SSW) 4,549 13.1 9.4°
Maximum altitude 15:20:56 28° 154° (SSE) 2,753 10.6 8.2°
Drops below altitude 10° 15:27:55 10° 100° (E) 3,331 10.4 7.3°
Sets 15:30:50 0° 89° (E) 4,045 10.7 6.9°
